#timestamp,LO_Frequency,Hit,StdDev 
1525863615.8,286046998.5,N
1525863635.6,286047000.3,N
1525863655.5,286046999.9,N
1525863675.3,286047001.0,N
1525863695.1,286047002.2,N
1525863715.9,286047001.9,N
1525863735.7,286047001.9,N
1525863755.6,286047001.5,N
1525863775.4,286047000.9,N
1525863795.2,286047000.4,N
1525863815.1,286047000.3,N
1525863816.0,286047000.3,N
1525863835.8,286047001.0,N
1525863855.6,286047000.4,N
1525863875.5,286046999.8,N
1525863895.3,286047001.0,N
1525863915.2,286047000.6,N
1525863935.9,286047002.5,N
1525863955.7,286046999.7,N
1525863975.6,286047000.0,N
1525863995.4,286047002.7,N
1525864015.2,286047000.2,N
1525864035.1,286047000.0,N
1525864036.0,286047000.0,N
1525864055.8,286047000.5,N
1525864075.7,286046999.7,N
1525864095.5,286046999.8,N
1525864115.3,286047000.3,N
1525864135.2,286046999.8,N
1525864155.0,286046999.9,N
1525864155.9,286046999.9,N
1525864175.8,286047000.0,N
1525864195.6,286047000.2,N
1525864215.4,286047000.9,N
1525864235.3,286047000.2,N
1525864255.1,286047000.6,N
1525864275.8,286047000.0,N
1525864295.7,286047000.9,N
1525864315.5,286047000.9,N
1525864335.4,286047000.2,N
1525864355.2,286047002.5,Y
1525864375.0,286046999.7,P
1525864375.9,286046999.7,N
1525864395.8,286047002.8,P
1525864415.6,286047001.0,N
1525864435.4,286046998.3,N
1525864455.3,286046998.9,N
1525864475.1,286046998.5,N
1525864495.9,286047000.9,N
1525864515.7,286046998.6,N
1525864535.5,286046998.7,N
1525864555.4,286046998.5,N
1525864575.2,286046998.9,N
1525864595.0,286046996.9,N
1525864595.9,286046996.9,N
1525864615.8,286046998.6,N
1525864635.6,286046999.3,N
1525864655.5,286046997.2,N
1525864675.3,286046997.6,N
1525864695.1,286046997.4,N
1525864715.9,286046997.4,N
1525864735.7,286046998.2,N
1525864755.6,286046998.2,N
1525864775.4,286046998.8,N
1525864795.2,286047000.5,N
1525864815.1,286046998.1,N
1525864816.0,286046998.1,N
1525864835.8,286046999.5,N
1525864855.6,286046996.9,N
1525864875.5,286046998.3,N
1525864895.3,286046998.5,N
1525864915.2,286047000.5,N
1525864935.9,286047000.9,N
1525864955.7,286047000.6,N
1525864975.6,286046999.9,N
1525864995.4,286046999.9,N
1525865015.2,286046998.6,N
1525865035.1,286046999.3,N
1525865036.0,286046999.3,N
1525865055.8,286046999.6,N
1525865075.7,286046998.4,N
1525865095.5,286046998.3,N
1525865115.3,286046998.6,N
1525865135.2,286046998.2,N
1525865155.0,286046998.5,N
1525865155.9,286046998.5,N
1525865175.7,286046998.9,N
1525865195.6,286047000.3,N
1525865215.4,286047002.2,N
1525865235.3,286047002.1,N
1525865255.1,286047002.7,N
1525865256.0,286047002.7,N
1525865275.8,286047001.0,N
1525865295.7,286046998.3,N
1525865315.5,286046997.1,N
1525865335.4,286046997.6,N
1525865355.2,286046999.6,N
1525865375.0,286046997.0,N
1525865375.9,286046997.0,N
1525865395.8,286047000.7,N
1525865415.6,286047002.4,N
1525865435.4,286047002.3,N
1525865455.3,286047002.1,N
1525865475.1,286047002.4,N
1525865495.9,286047002.3,N
1525865515.7,286047000.2,N
1525865535.5,286047000.9,N
1525865555.4,286046998.7,N
1525865575.2,286046998.4,N
1525865595.1,286046998.9,N
1525865596.0,286046998.9,N
1525865615.8,286046999.4,N
1525865635.6,286046998.2,N
1525865655.5,286047000.8,N
1525865675.3,286046999.9,N
1525865695.1,286047002.3,N
1525865715.9,286047001.3,N
1525865735.7,286047004.3,N
1525865755.6,286047001.5,N
1525865775.4,286047001.4,N
1525865795.2,286047000.4,N
1525865815.1,286047001.4,N
1525865816.0,286047001.4,N
1525865835.8,286047002.6,N
1525865855.6,286047001.6,N
1525865875.5,286047001.9,N
1525865895.3,286047001.6,N
1525865915.2,286047002.5,N
1525865935.9,286047002.2,N
1525865955.7,286047001.8,N
1525865975.6,286047001.6,N
1525865995.4,286047002.1,N
1525866015.2,286047001.5,N
1525866035.1,286047002.6,N
1525866036.0,286047002.6,N
1525866055.8,286046999.9,N
1525866075.7,286047000.9,N
1525866095.5,286047000.3,N
1525866115.3,286047000.5,N
1525866135.2,286047002.8,N
1525866155.0,286047000.4,N
1525866155.9,286047000.4,N
1525866175.8,286047000.3,N
1525866195.6,286047001.0,N
1525866215.4,286047000.9,N
1525866235.3,286046999.2,N
1525866255.1,286046999.6,N
1525866275.8,286046999.2,N
1525866295.7,286046999.5,N
1525866315.5,286046999.1,N
1525866335.4,286046998.9,N
1525866355.2,286046999.0,N
1525866375.0,286046999.1,N
1525866375.9,286046999.1,N
1525866395.8,286046998.8,N
1525866415.6,286046998.5,N
1525866435.4,286047000.8,N
1525866455.3,286047000.7,N
1525866475.1,286046998.7,N
1525866495.9,286047001.2,N
1525866515.7,286046999.2,N
1525866535.5,286046996.6,N
1525866555.4,286046997.8,N
1525866575.2,286046997.6,N
1525866595.0,286046995.1,Y
1525866595.9,286047011.9,P
1525866615.8,286046995.6,N
1525866635.6,286046997.9,N
1525866655.5,286046995.8,N
1525866675.3,286046997.9,N
1525866695.1,286046993.4,N
1525866715.9,286046994.5,N
1525866735.7,286046994.7,N
1525866755.6,286046991.8,N
1525866775.4,286046992.5,N
1525866795.2,286046992.3,N
1525866815.1,286046992.6,N
1525866816.0,286046992.6,N
1525866835.8,286046993.1,N
1525866855.6,286046992.7,N
1525866875.5,286046990.2,N
1525866895.3,286046991.9,N
1525866915.2,286046994.5,N
1525866935.9,286046994.5,N
1525866955.7,286046994.6,N
1525866975.6,286046993.9,N
1525866995.4,286046994.5,N
1525867015.2,286046994.7,N
1525867035.1,286046994.8,N
1525867036.0,286046994.8,N
1525867055.8,286046992.1,N
1525867075.7,286046991.9,N
1525867095.5,286046992.2,N
1525867115.3,286046991.7,N
1525867135.2,286046994.0,N
1525867155.0,286046991.7,N
1525867155.9,286046991.7,Y
1525867175.8,286047000.9,P
1525867195.6,286046998.9,N
